Location: Narragansett
(41.4496°N, 71.4488°W)
Time: 17:23:02
(UTC+00:00)

Nauka - Pass Details

Date: 18 September 2021
Orbit: 417 x 423 km, 51.6° (Epoch: 24 October)

Event Time Altitude Azimuth Distance (km) Brightness Sun altitude
Rises 23:21:02 0° 224° (SW) 2,348 ? -6.7°
Reaches altitude 10° 23:23:08 10° 221° (SW) 1,489 ? -7.1°
Maximum altitude 23:26:26 59° 141° (SE) 486 ? -7.7°
Drops below altitude 10° 23:29:45 10° 61° (ENE) 1,501 ? -8.4°
Enters shadow 23:30:32 - 59° (ENE) 1,819 ? -8.5°
